Back to catalog

STARLINK-33786

AliveCommunicationsVLEO
NORAD 63514·PAYLOAD·🇺🇸 United States

Launched Apr 7, 2025 from Vandenberg Space Force Base

Loading…

Next Passes (next 24 hours)

TLE

FreshSource: CelesTrak SupGP

Epoch: Sep 14, 2026, 21:04 UTC

1 63514C 25071X   26257.87826389 -.00016061  00000+0 -47470-3 0  2574
2 63514  53.1581 339.7677 0001226  86.7647 310.7276 15.34387228    15

Track STARLINK-33786 in real time with AllMySat

Download on the App Store